Regional Weather Roundup
Issued by NWS Charleston, SC

Current Version | Previous Version | Graphics & Text | Print | Product List | Glossary On
Versions: 1 2 3 4 5 6 7 8 9 10 11 12 13 14 15 16 17 18 19 20 21 22 23 24 25 26 27 28 29 30 31 32 33 34 35 36 37 38 39 40 41 42 43 44 45 46 47 48 49 50
401 ASUS42 KCHS 121628 RWRCHS REGIONAL WEATHER ROUNDUP NATIONAL WEATHER SERVICE CHARLESTON SC 1100 AM EST FRI FEB 12 2016 NOTE: "FAIR" INDICATES FEW OR NO CLOUDS BELOW 12,000 FEET WITH NO SIGNIFICANT WEATHER AND/OR OBSTRUCTIONS TO VISIBILITY. NOT ALL STATIONS ARE QUALITY CONTROLLED BY THE NATIONAL WEATHER SERVICE. USE DATA WITH CAUTION...ESPECIALLY DEWPOINT OBSERVATIONS. SCZ027-030-031-034>040-042>050-121700- ...SOUTHEAST SOUTH CAROLINA... CITY SKY/WX TMP DP RH WIND PRES REMARKS N CHARLESTON CLOUDY 52 42 69 CALM 30.12F WATERFRONT PRK N/A 50 48 93 VRB3 29.97F MOUNT PLEASANT CLOUDY 50 45 81 E3 30.12F JOHNS ISLAND CLOUDY 55 52 88 CALM 30.11F PINOPOLIS N/A 46 39 76 NE6 30.03F MONCKS CORNER CLOUDY 46 36 66 CALM 30.12F SUMMERVILLE NOT AVBL BEAUFORT MCAS DRIZZLE 56 52 86 SW6 30.11F BEAUFORT ARPT CLOUDY 55 54 94 SW5 30.11S FOG HILTON HEAD IS PTSUNNY 59 54 82 SW9 30.12F WALTERBORO CLOUDY 50 45 81 CALM 30.12F ALLENDALE CLOUDY 48 41 76 CALM 30.12S ...SOUTHERN MIDLANDS AND PEE DEE... CITY SKY/WX TMP DP RH WIND PRES REMARKS GEORGETOWN CLOUDY 45 36 70 NE7 30.14F KINGSTREE CLOUDY 41 27 56 N6 30.15S ORANGEBURG PTSUNNY 48 36 63 NE5 30.14R BARNWELL FAIR 52 41 66 CALM 30.12F AIKEN FAIR 41 32 70 N7 30.16S MANNING CLOUDY 43 32 65 N6 30.14S COLUMBIA PTSUNNY 40 25 55 NE3 30.15F SUMTER NOT AVBL FLORENCE CLOUDY 36 17 46 NE8 30.18S WCI 30 MYRTLE BEACH CLOUDY 43 27 52 N12 30.17S N MYRTLE BEACH CLOUDY 41 30 65 NE8 30.14S $$ GAZ063-065-086>088-099>101-113>116-118-119-134>141-150-121700- ...SOUTHEAST GEORGIA... CITY SKY/WX TMP DP RH WIND PRES REMARKS SAVANNAH ARPT CLOUDY 62 54 74 SW12 30.11F HUNTER AAF NOT AVBL FORT STEWART NOT AVBL STATESBORO CLOUDY 52 49 92 N5 30.12S SYLVANIA CLOUDY 46 46 100 CALM 30.12F FOG CLAXTON CLOUDY 63 57 83 SW8 30.11S ...CSRA...CENTRAL AND FAR SOUTHEAST GEORGIA... CITY SKY/WX TMP DP RH WIND PRES REMARKS THOMSON CLOUDY 44 36 74 NE5 30.17F AUGUSTA-BUSH CLOUDY 48 36 63 VRB3 30.13F AUGUSTA-DANIEL PTSUNNY 46 33 60 N7 30.14F SWAINSBORO DRIZZLE 45 45 100 CALM 30.13S VIDALIA CLOUDY 61 54 77 W9G16 30.12S EASTMAN CLOUDY 59 53 78 W8 30.15S HAZLEHURST CLOUDY 64 56 75 SW7G16 30.11S ALMA CLOUDY 62 55 77 SW12 30.14S WAYCROSS PTSUNNY 69 59 70 W16G23 30.15S JESUP CLOUDY 66 59 77 W9G17 30.13F BAXLEY CLOUDY 64 55 72 W12G18 30.12S BRUNSWICK PTSUNNY 64 55 72 SW15 30.15F SAINT SIMONS CLOUDY 64 56 75 SW16 30.15F $$ SCZ027-028-034-036>038-045-046-048>050-GAZ119-141-121700- ...LAKE AND SUPPLEMENTAL COASTAL OBSERVATIONS... STATION/POSITION TIME TEMP WIND PRES WAVE SWELL AIR SEA DIR/SP/G HT/PER HT/PER/DIR (UTC) (F) (DEG/KT/KT) (MB) (FT/S) (FT/S/D) WINYAH BAY 1545 44 40/ 12 1019.0F LAKE MURRAY 1500 36 40/ 1/ 4 1021.0F ACE BASIN NERRS 1500 51 CALM 1020.0 FORT PULASKI 1600 57 50 200/ 7/ 11 1019.9F SAPELO ISLAND 1600 58 250/ 9 1021.0S $$ ANZ835-935-AMZ111-154-330-350-352-354-370-450-454-472-121700- ...C-MAN AND BUOY OBSERVATIONS... STATION/POSITION TIME TEMP WIND PRES WAVE SWELL AIR SEA DIR/SP/G HT/PER HT/PER/DIR (UTC) (F) (DEG/KT/KT) (MB) (FT/S) (FT/S/D) BUOY 41004 1550 59 68 250/ 17/ 19 1019.1F 4/ 6 2/ 8 BUOY 41008 1550 54 52 200/ 14/ 16 1020.9F 4/ 5 FOLLY BEACH CMAN 1600 50 CALM / 2 1019.9F CAPERS NEARSHORE 1508 51 70/ 8/ 12 1020.2F FRIPP NEARSHORE 1500 52 250/ 6/ 8 1019.6F STATION/POSITION TIME TEMP WIND PRES WAVE SWELL AIR SEA DIR/SP/G HT/PER HT/PER/DIR (UTC) (F) (DEG/KT/KT) (MB) (FT/S) (FT/S/D) 5E ST. MARYS GA 1521 56 N/A 2/ 5 FRYING PAN BUOY 1600 56 56 40/ 8/ 12 1018.5F BUOY 41025 1550 45 71 60/ 12/ 17 1023.2F 3/ 8 3/ 70/ 8 CAPE LOOKOUT NC NOT AVBL BUOY 41002 1550 64 68 210/ 25/ 33 N/A 4/ 8 3/ 30/ 8 BUOY 41010 1520 67 72 1025.7S ST AUGUSTINE FL 1600 67 57 250/ 9/ 12 1023.9F $$

USA.gov is the U.S. government's official web portal to all federal, state and local government web resources and services.